TimeMST,TemperatureF,Dew PointF,Humidity,Sea Level PressureIn,VisibilityMPH,Wind Direction,Wind SpeedMPH,Gust SpeedMPH,PrecipitationIn,Events,Conditions,WindDirDegrees,DateUTC
12:51 AM,75.0,19.0,12,29.64,10.0,NW,11.5,-,N/A,,Clear,310,2013-05-23 07:51:00
1:51 AM,70.0,18.0,14,29.65,10.0,Calm,Calm,-,N/A,,Clear,0,2013-05-23 08:51:00
2:51 AM,66.9,19.0,16,29.67,10.0,Calm,Calm,-,N/A,,Clear,0,2013-05-23 09:51:00
3:51 AM,64.0,18.0,17,29.68,10.0,Calm,Calm,-,N/A,,Clear,0,2013-05-23 10:51:00
4:51 AM,61.0,17.1,18,29.70,10.0,East,5.8,-,N/A,,Clear,100,2013-05-23 11:51:00
5:51 AM,64.0,18.0,17,29.72,10.0,SSE,3.5,-,N/A,,Clear,160,2013-05-23 12:51:00
6:51 AM,69.1,19.9,15,29.73,10.0,SE,4.6,-,N/A,,Clear,140,2013-05-23 13:51:00
7:51 AM,79.0,19.9,11,29.75,10.0,ESE,9.2,-,N/A,,Clear,120,2013-05-23 14:51:00
8:51 AM,82.0,19.9,10,29.75,10.0,ESE,8.1,-,N/A,,Clear,110,2013-05-23 15:51:00
9:51 AM,86.0,19.9,9,29.74,10.0,East,5.8,-,N/A,,Clear,100,2013-05-23 16:51:00
10:51 AM,91.0,16.0,6,29.71,10.0,SSE,10.4,23.0,N/A,,Clear,150,2013-05-23 17:51:00
11:51 AM,91.9,8.1,4,29.70,10.0,SSW,13.8,21.9,N/A,,Clear,210,2013-05-23 18:51:00
12:51 PM,95.0,10.9,4,29.68,10.0,Variable,3.5,-,N/A,,Clear,0,2013-05-23 19:51:00
1:51 PM,95.0,8.1,4,29.67,10.0,SE,9.2,20.7,N/A,,Partly Cloudy,140,2013-05-23 20:51:00
2:51 PM,98.1,7.0,4,29.64,10.0,NW,11.5,20.7,N/A,,Partly Cloudy,310,2013-05-23 21:51:00
3:51 PM,97.0,5.0,4,29.63,10.0,NNE,3.5,-,N/A,,Scattered Clouds,20,2013-05-23 22:51:00
4:51 PM,97.0,1.9,4,29.63,10.0,Variable,4.6,17.3,N/A,,Scattered Clouds,0,2013-05-23 23:51:00
5:38 PM,96.8,5.0,4,29.78,10.0,WNW,20.7,28.8,N/A,,Scattered Clouds,290,2013-05-24 00:38:00
5:51 PM,96.1,6.1,4,29.62,10.0,WNW,18.4,27.6,N/A,,Scattered Clouds,290,2013-05-24 00:51:00
6:51 PM,91.9,12.0,5,29.63,10.0,NW,18.4,-,N/A,,Partly Cloudy,310,2013-05-24 01:51:00
7:51 PM,87.1,16.0,7,29.64,10.0,NW,13.8,-,N/A,,Clear,310,2013-05-24 02:51:00
8:51 PM,82.0,17.1,9,29.68,10.0,NW,11.5,-,N/A,,Clear,320,2013-05-24 03:51:00
9:51 PM,81.0,19.9,10,29.69,10.0,WNW,15.0,-,N/A,,Clear,300,2013-05-24 04:51:00
10:51 PM,80.1,21.0,11,29.70,10.0,NW,12.7,24.2,N/A,,Clear,310,2013-05-24 05:51:00
11:51 PM,78.1,21.0,12,29.73,10.0,NW,12.7,-,N/A,,Clear,320,2013-05-24 06:51:00